This is the latest recevied weather packets stored in our database for station/object JG6YPS-13. If no packets are shown the sender has not sent any weather packets the latest 10 day(s).
| Time | Temp. | Humidity | Pressure | Rain* | Wind** | Luminosity | Snow |
|---|---|---|---|---|---|---|---|
| 1777874921 | 18.89° C | 47% | 1014.2 hPa | 0 mm | - | - | - |
| 1777874321 | 19.44° C | 46% | 1014.4 hPa | 0 mm | - | - | - |
| 1777873722 | 20° C | 43% | 1014.5 hPa | 0 mm | - | - | - |
| 1777873122 | 20° C | 42% | 1014.3 hPa | 0 mm | - | - | - |
| 1777872522 | 20° C | 43% | 1014.1 hPa | 0 mm | - | - | - |
| 1777871923 | 20° C | 41% | 1014.1 hPa | 0 mm | - | - | - |
| 1777871323 | 20° C | 40% | 1014 hPa | 0 mm | - | - | - |
| 1777870723 | 20.56° C | 42% | 1013.9 hPa | 0 mm | - | - | - |
| 1777870124 | 20° C | 42% | 1013.9 hPa | 0 mm | - | - | - |
| 1777869524 | 20.56° C | 44% | 1014 hPa | 0 mm | - | - | - |
| 1777868924 | 20.56° C | 42% | 1014 hPa | 0 mm | - | - | - |
| 1777868325 | 20.56° C | 44% | 1014 hPa | 0 mm | - | - | - |
| 1777867725 | 20.56° C | 42% | 1014 hPa | 0 mm | - | - | - |
| 1777867126 | 20.56° C | 40% | 1014 hPa | 0 mm | - | - | - |
| 1777866526 | 21.11° C | 40% | 1013.8 hPa | 0 mm | - | - | - |
| 1777865927 | 21.11° C | 46% | 1013.7 hPa | 0 mm | - | - | - |
| 1777865327 | 22.22° C | 43% | 1013.7 hPa | 0 mm | - | - | - |
| 1777864727 | 22.22° C | 46% | 1013.7 hPa | 0 mm | - | - | - |
| 1777864127 | 22.78° C | 48% | 1013.3 hPa | 0 mm | - | - | - |
| 1777863527 | 23.33° C | 49% | 1013.4 hPa | 0 mm | - | - | - |
| 1777862927 | 23.33° C | 44% | 1013.4 hPa | 0 mm | - | - | - |
| 1777862327 | 23.89° C | 53% | 1013.4 hPa | 0 mm | - | - | - |
| 1777861727 | 22.78° C | 51% | 1013.4 hPa | 0 mm | - | - | - |
| 1777861127 | 22.78° C | 51% | 1013.4 hPa | 0 mm | - | - | - |
| 1777860527 | 22.78° C | 53% | 1013.4 hPa | 0 mm | - | - | - |
* Rain latest hour (hover to see other rain measurements)
** Current wind speed in m/s (hover to see current wind gust speed)